• Join FlightAware (Why Join?)
  • Login
  • US Flag 
10:11PM EDT


 

Airport Tracker/Info


-or-


 

Live Flight TrackerFlight Track Log ✈ SWA542 ✈ 12-Apr-2013 ✈ KMCO - KMDW

Flight Track Log - Related Links

Times and Time Zones

All times are in EDT time to prevent confusion due to time zone crossing. See the SWA542 flight status page for this flight to view local times or setup timezone preferences in your user account.

Time Position Orientation Groundspeed Altitude Reporting Facility
EDT Latitude Longitude Course Direction KTS MPH feet Rate Location/Type
07:24PM 28.4167 -81.3167 196° South 162 186 800  Level Orlando TRACON
07:25PM 28.3667 -81.3333 196° South 209 241 2,700 2,280 Climbing Orlando TRACON
07:26PM 28.3333 -81.4000 240° Southwest 260 299 5,400 2,400 Climbing Orlando TRACON
07:29PM 28.3333 -81.5931 270° West 281 323 10,900 2,520 Climbing Jacksonville Center
07:30PM 28.3322 -81.7017 269° West 312 359 14,100 3,000 Climbing Jacksonville Center
07:31PM 28.3625 -81.8239 286° West 352 405 17,000 2,700 Climbing Jacksonville Center
07:32PM 28.3989 -81.9297 291° West 357 411 19,600 2,400 Climbing Jacksonville Center
07:33PM 28.4372 -82.0428 291° West 371 427 21,800 1,800 Climbing Jacksonville Center
07:34PM 28.4797 -82.1606 292° West 384 442 23,300 1,620 Climbing Jacksonville Center
07:35PM 28.5242 -82.2806 293° West 405 466 25,100 1,800 Climbing Jacksonville Center
07:36PM 28.5725 -82.4008 295° West 411 473 26,900 1,500 Climbing Jacksonville Center
07:37PM 28.6189 -82.5261 293° West 418 481 28,200 1,140 Climbing Jacksonville Center
07:38PM 28.6672 -82.6536 293° West 424 488 29,200 900 Climbing Jacksonville Center
07:39PM 28.7383 -82.7672 306° West 429 494 30,000 1,020 Climbing Jacksonville Center
07:40PM 28.8658 -82.8144 342° North 429 494 31,300 1,260 Climbing Jacksonville Center
07:41PM 28.9911 -82.8689 339° North 453 521 32,600 1,260 Climbing Jacksonville Center
07:42PM 29.1161 -82.9186 341° North 465 535 33,900 1,200 Climbing Jacksonville Center
07:43PM 29.2394 -82.9711 340° North 470 541 35,000 1,140 Climbing Jacksonville Center
07:44PM 29.3644 -83.0236 340° North 475 547 36,200 1,020 Climbing Jacksonville Center
07:45PM 29.4856 -83.0764 339° North 469 540 37,100 780 Climbing Jacksonville Center
07:46PM 29.6003 -83.1242 340° North 477 549 37,800 420 Climbing Jacksonville Center
07:47PM 29.7214 -83.1772 339° North 470 541 38,000 60 Climbing Jacksonville Center
07:48PM 29.8464 -83.2303 340° North 470 541 38,000  Level Jacksonville Center
07:49PM 29.9861 -83.2883 340° North 475 547 38,000  Level Jacksonville Center
07:50PM 30.0986 -83.3319 341° North 475 547 38,000  Level Jacksonville Center
07:51PM 30.2300 -83.3711 346° North 475 547 38,000  Level Jacksonville Center
07:52PM 30.3636 -83.4103 346° North 480 552 38,000  Level Jacksonville Center
07:53PM 30.4969 -83.4494 346° North 480 552 38,000  Level Jacksonville Center
07:54PM 30.6306 -83.4914 345° North 485 558 38,000  Level Jacksonville Center
07:55PM 30.7639 -83.5333 345° North 490 564 38,000  Level Jacksonville Center
07:56PM 30.8931 -83.5728 345° North 485 558 38,000  Level Jacksonville Center
07:57PM 31.0267 -83.6125 346° North 485 558 38,000  Level Jacksonville Center
07:58PM 31.1619 -83.6550 345° North 490 564 38,000  Level Jacksonville Center
08:00PM 31.4228 -83.7372 345° North 488 562 38,000  Level Atlanta Center
08:01PM 31.5586 -83.7806 345° North 488 562 38,000  Level Atlanta Center
08:02PM 31.6922 -83.8217 345° North 493 567 38,000  Level Atlanta Center
08:03PM 31.8444 -83.8703 345° North 502 578 38,000  Level Atlanta Center
08:04PM 31.9742 -83.9092 346° North 502 578 38,000  Level Atlanta Center
08:05PM 32.1078 -83.9506 345° North 492 566 38,000  Level Atlanta Center
08:06PM 32.2414 -83.9922 345° North 492 566 38,000  Level Atlanta Center
08:07PM 32.3728 -84.0339 345° North 492 566 38,000  Level Atlanta Center
08:08PM 32.5064 -84.0758 345° North 492 566 38,000  Level Atlanta Center
08:09PM 32.6400 -84.1203 344° North 492 566 38,000  Level Atlanta Center
08:10PM 32.7778 -84.1600 346° North 492 566 38,000  Level Atlanta Center
08:11PM 32.9050 -84.2069 343° North 492 566 38,000  Level Atlanta Center
08:12PM 33.0425 -84.2519 345° North 492 566 38,000  Level Atlanta Center
08:13PM 33.1742 -84.2944 345° North 497 572 38,000  Level Atlanta Center
08:14PM 33.3075 -84.3347 346° North 497 572 38,000  Level Atlanta Center
08:15PM 33.4369 -84.3775 345° North 486 559 38,000  Level Atlanta Center
08:16PM 33.5642 -84.4153 346° North 475 547 38,000  Level Atlanta Center
08:17PM 33.6831 -84.4508 346° North 470 541 38,000  Level Atlanta Center
08:18PM 33.8122 -84.4814 349° North 470 541 38,000  Level Atlanta Center
08:19PM 33.9436 -84.5119 349° North 470 541 38,000  Level Atlanta Center
08:20PM 34.0792 -84.5478 348° North 470 541 38,000  Level Atlanta Center
08:21PM 34.2106 -84.5764 350° North 470 541 38,000  Level Atlanta Center
08:22PM 34.3336 -84.6072 348° North 464 534 38,000  Level Atlanta Center
08:23PM 34.4628 -84.6383 349° North 464 534 38,000  Level Atlanta Center
08:24PM 34.5919 -84.6697 349° North 469 540 38,000  Level Atlanta Center
08:25PM 34.7025 -84.6983 348° North 464 534 38,000  Level Atlanta Center
08:26PM 34.8297 -84.7297 349° North 459 528 38,000  Level Atlanta Center
08:27PM 34.9567 -84.7636 348° North 459 528 38,000  Level Atlanta Center
08:28PM 35.0839 -84.7953 348° North 465 535 38,000  Level Atlanta Center
08:29PM 35.2108 -84.8267 349° North 465 535 38,000  Level Atlanta Center
08:30PM 35.3400 -84.8586 349° North 465 535 38,000  Level Atlanta Center
08:31PM 35.4692 -84.8906 349° North 465 535 38,000  Level Atlanta Center
08:33PM 35.7247 -84.9544 349° North 469 540 38,000  Level Indianapolis Center
08:34PM 35.8564 -84.9872 349° North 477 549 38,000  Level Indianapolis Center
08:35PM 35.9886 -85.0214 348° North 471 542 38,000  Level Indianapolis Center
08:36PM 36.1169 -85.0544 348° North 466 536 38,000  Level Indianapolis Center
08:37PM 36.2442 -85.0869 348° North 464 534 38,000  Level Indianapolis Center
08:38PM 36.3711 -85.1192 348° North 464 534 38,000  Level Indianapolis Center
08:39PM 36.4961 -85.1519 348° North 459 528 38,000  Level Indianapolis Center
08:40PM 36.6200 -85.1847 348° North 456 525 38,000  Level Indianapolis Center
08:41PM 36.7483 -85.2169 349° North 466 536 38,000  Level Indianapolis Center
08:42PM 36.8756 -85.2500 348° North 466 536 38,000  Level Indianapolis Center
08:43PM 37.0278 -85.2903 348° North 465 535 38,000  Level Indianapolis Center
08:44PM 37.1531 -85.3244 348° North 466 536 38,000  Level Indianapolis Center
08:45PM 37.2783 -85.3575 348° North 461 531 38,000  Level Indianapolis Center
08:46PM 37.4053 -85.3900 349° North 462 532 38,000  Level Indianapolis Center
08:47PM 37.5303 -85.4250 347° North 457 526 38,000  Level Indianapolis Center
08:48PM 37.6533 -85.4581 348° North 455 524 38,000  Level Indianapolis Center
08:49PM 37.7783 -85.4903 348° North 457 526 38,000 -120 Level Indianapolis Center
08:50PM 37.9219 -85.5278 348° North 469 540 37,800 -540 Descending Indianapolis Center
08:51PM 38.0486 -85.5622 348° North 465 535 36,900 -900 Descending Indianapolis Center
08:52PM 38.1767 -85.5908 350° North 468 539 36,000 -900 Descending Indianapolis Center
08:53PM 38.3050 -85.6153 351° North 466 536 35,000 -1,020 Descending Indianapolis Center
08:54PM 38.4542 -85.6436 352° North 453 521 34,000 -540 Descending Indianapolis Center
08:55PM 38.5758 -85.6675 351° North 443 510 34,000 -240 Level Indianapolis Center
08:56PM 38.6975 -85.6917 351° North 442 509 33,600 -720 Descending Indianapolis Center
08:57PM 38.8206 -85.7150 352° North 444 511 32,600 -1,080 Descending Indianapolis Center
08:58PM 38.9381 -85.7394 351° North 431 496 31,500 -1,020 Descending Indianapolis Center
08:59PM 39.0575 -85.7619 352° North 431 496 30,600 -780 Descending Indianapolis Center
09:00PM 39.1756 -85.7844 352° North 430 495 30,000 -660 Descending Indianapolis Center
09:01PM 39.2956 -85.8089 351° North 433 498 29,300 -840 Descending Indianapolis Center
09:02PM 39.4169 -85.8336 351° North 437 503 28,300 -660 Descending Indianapolis Center
09:03PM 39.5553 -85.8611 351° North 426 490 28,000 -720 Descending Indianapolis Center
09:05PM 39.6678 -85.8831 351° North 415 478 26,900 -1,080 Descending Indianapolis Center
09:06PM 39.7722 -85.9039 351° North 408 470 25,900 -1,020 Descending Indianapolis Center
09:07PM 39.8831 -85.9258 351° North 401 461 24,900 -960 Descending Indianapolis Center
09:08PM 39.9983 -85.9497 351° North 397 457 24,000 -480 Descending Indianapolis Center
09:09PM 40.1006 -85.9822 346° North 383 441 24,000  Level Indianapolis Center
09:09PM 40.1689 -86.0161 339° North 376 433 24,000 -240 Level Chicago Center
09:10PM 40.2664 -86.0611 341° North 372 428 23,600 -720 Descending Chicago Center
09:11PM 40.3636 -86.1069 340° North 370 426 22,600 -780 Descending Chicago Center
09:12PM 40.4606 -86.1514 341° North 368 423 22,000 -420 Descending Chicago Center
09:13PM 40.5561 -86.1983 340° North 367 422 21,800 -1,260 Descending Chicago Center
09:14PM 40.6678 -86.2514 340° North 358 412 19,500 -2,160 Descending Chicago Center
09:15PM 40.7569 -86.2928 341° North 347 399 17,400 -2,040 Descending Chicago Center
09:17PM 40.8456 -86.3356 340° North 340 391 15,400 -1,920 Descending Chicago Center
09:18PM 40.9300 -86.3753 340° North 329 379 13,500 -1,860 Descending Chicago Center
09:19PM 41.0147 -86.4167 340° North 325 374 11,600 -1,320 Descending Chicago Center
09:20PM 41.0706 -86.4894 316° Northwest 300 345 10,800 -780 Descending Chicago Center
09:21PM 41.1094 -86.5822 299° West 288 331 10,100 -420 Descending Chicago Center
09:22PM 41.1642 -86.6636 312° West 299 344 10,000 -60 Descending Chicago Center
09:23PM 41.2367 -86.7475 319° Northwest 297 342 10,000  Level Chicago Center
09:24PM 41.3006 -86.8192 320° Northwest 300 345 10,000 -120 Level Chicago Center
09:25PM 41.3611 -86.8892 319° Northwest 293 337 9,800 -600 Descending Chicago Center
09:26PM 41.4150 -86.9519 319° Northwest 268 308 8,800 -1,080 Descending Chicago Center
09:27PM 41.4694 -87.0386 310° West 257 296 7,600 -1,140 Descending Chicago Center
09:28PM 41.5000 -87.1175 297° West 246 283 6,500 -900 Descending Chicago Center
09:29PM 41.5167 -87.1833 289° West 243 280 6,000 -900 Descending Chicago TRACON
09:30PM 41.5167 -87.2667 270° West 239 275 4,900 -1,080 Descending Chicago TRACON
09:30PM 41.5167 -87.3500 270° West 233 268 4,000 -480 Descending Chicago TRACON
09:32PM 41.5500 -87.4333 298° West 220 253 4,000  Level Chicago TRACON
09:32PM 41.5586 -87.4394 332° Northwest 228 262 4,000  Level Chicago Center
09:33PM 41.5939 -87.4842 317° Northwest 203 234 4,000  Level Chicago Center
09:34PM 41.6267 -87.5300 314° West 163 188 4,000  Level Chicago Center
09:35PM 41.6533 -87.5669 314° West 149 171 4,000 -180 Level Chicago Center
09:36PM 41.6806 -87.6047 314° West 144 166 3,700 -540 Descending Chicago Center
09:37PM 41.7000 -87.6333 312° West 142 163 3,200 -900 Descending Chicago TRACON
09:38PM 41.7333 -87.6667 323° Northwest 130 150 2,200 -840 Descending Chicago TRACON
09:39PM 41.7500 -87.7000 304° West 125 144 1,600 -540 Descending Chicago TRACON
09:40PM 41.7858 -87.7531 312° West 131 151 1,000 -420 Descending Chicago Center